#timestamp,LO_Frequency,Hit,StdDev 
1560315615.4,286047002.1,N
1560315635.2,286047001.3,N
1560315655.0,286047001.5,N
1560315655.9,286047001.5,N
1560315675.8,286047003.5,Y
1560315695.6,286047002.3,P
1560315715.5,286047004.4,P
1560315735.3,286047001.9,N
1560315755.1,286047001.5,N
1560315775.9,286047001.4,N
1560315795.7,286047001.3,N
1560315815.5,286047001.3,N
1560315835.4,286047002.2,N
1560315855.2,286046998.5,N
1560315875.1,286046998.8,N
1560315876.0,286046998.8,N
1560315895.8,286046998.2,N
1560315915.6,286047000.2,N
1560315935.5,286047000.0,N
1560315955.3,286047000.9,N
1560315975.2,286046999.5,N
1560315995.9,286046999.3,N
1560316015.7,286046998.1,N
1560316035.6,286046999.1,N
1560316055.4,286046999.3,N
1560316075.2,286046999.1,N
1560316095.1,286046996.5,N
1560316096.0,286046996.5,N
1560316115.8,286046997.6,N
1560316135.7,286046997.4,N
1560316155.5,286046996.5,N
1560316175.3,286046999.5,N
1560316195.2,286046996.9,N
1560316215.0,286046999.0,N
1560316215.9,286046999.0,N
1560316235.7,286046996.9,N
1560316255.6,286046995.0,N
1560316275.4,286046995.0,N
1560316295.3,286046995.0,N
1560316315.1,286046995.1,N
1560316316.0,286046995.1,N
1560316335.8,286046995.5,N
1560316355.7,286046996.4,N
1560316375.5,286046996.4,N
1560316395.3,286046995.7,N
1560316415.2,286046995.4,N
1560316435.0,286046995.0,N
1560316435.9,286046995.0,N
1560316455.8,286046995.1,N
1560316475.6,286046995.4,N
1560316495.4,286046995.6,N
1560316515.3,286046996.2,N
1560316535.1,286046995.7,N
1560316555.8,286046997.5,N
1560316575.7,286046997.6,N
1560316595.5,286046998.0,N
1560316615.4,286046997.2,N
1560316635.2,286046996.8,N
1560316655.0,286046997.7,N
1560316655.9,286046997.7,N
1560316675.8,286046996.7,N
1560316695.6,286046997.3,N
1560316715.5,286046996.5,N
1560316735.3,286046997.8,N
1560316755.1,286046995.6,Y
1560316775.9,286046999.3,P
1560316795.7,286046996.8,N
1560316815.5,286046995.6,P
1560316835.4,286046997.4,N
1560316855.2,286046997.3,N
1560316875.1,286046993.8,Y
1560316876.0,286046993.8,P
1560316895.8,286046999.4,N
1560316915.6,286046998.5,N
1560316935.5,286046998.2,N
1560316955.3,286047001.1,N
1560316975.2,286047000.1,N
1560316995.9,286047001.4,N
1560317015.7,286046999.7,N
1560317035.6,286047001.8,N
1560317055.4,286047000.1,N
1560317075.3,286047002.8,N
1560317095.1,286047002.7,N
1560317096.0,286047002.7,N
1560317115.8,286047000.7,N
1560317135.7,286047002.8,N
1560317155.5,286047004.0,N
1560317175.3,286047002.1,N
1560317195.2,286047001.5,N
1560317215.0,286047001.6,N
1560317215.9,286047001.6,N
1560317235.8,286047004.2,N
1560317255.6,286047002.2,N
1560317275.4,286047002.5,N
1560317295.3,286047002.6,N
1560317315.1,286047002.7,N
1560317335.9,286047001.4,N
1560317355.7,286047002.0,N
1560317375.5,286047004.4,N
1560317395.4,286047004.3,N
1560317415.2,286047001.6,N
1560317435.0,286047001.7,N
1560317436.0,286047001.7,N
1560317455.8,286047003.5,N
1560317475.6,286047001.4,N
1560317495.5,286047003.1,N
1560317515.3,286047003.9,Y
1560317535.2,286047000.0,P
1560317555.0,286047000.2,N
1560317555.9,286047000.2,N
1560317575.8,286047000.7,N
1560317595.6,286047000.3,N
1560317615.4,286046998.1,N
1560317635.3,286046999.4,N
1560317655.1,286046998.6,N
1560317675.9,286047000.7,N
1560317695.7,286046999.8,N
1560317715.5,286046998.2,N
1560317735.4,286046998.4,N
1560317755.2,286046998.2,N
1560317775.0,286047000.7,N
1560317795.4,286047000.2,N
1560317815.2,286047002.1,N
1560317835.1,286047004.3,Y
1560317836.0,286047004.3,P
1560317855.8,286047000.4,N
1560317875.6,286047002.8,N
1560317895.5,286047001.5,N
1560317915.3,286047003.8,N
1560317935.2,286047003.0,N
1560317955.9,286047003.8,N
1560317975.7,286047001.4,N
1560317995.6,286047004.3,N
1560318015.4,286047001.6,N
1560318035.2,286047004.2,N
1560318055.1,286047002.5,N
1560318056.0,286047002.5,N
1560318075.8,286047002.8,N
1560318095.7,286047000.9,N
1560318115.5,286047000.3,N
1560318135.3,286046999.9,N
1560318155.2,286047000.0,N
1560318175.0,286047000.9,N
1560318175.9,286047000.9,N
1560318195.7,286047000.4,N
1560318215.6,286047000.2,N
1560318235.4,286046998.5,N
1560318255.3,286046998.7,N
1560318275.1,286046999.1,N
1560318276.0,286046999.1,N
1560318295.8,286046998.9,N
1560318315.7,286046998.4,N
1560318335.5,286047000.3,N
1560318355.3,286047002.5,N
1560318375.2,286047000.1,N
1560318395.0,286047000.6,N
1560318395.9,286047000.6,N
1560318415.8,286047004.3,N
1560318435.6,286047001.7,N
1560318455.4,286047002.1,N
1560318475.3,286047011.9,Y
1560318495.1,286046999.9,P
1560318515.9,286047002.2,P
1560318535.7,286047000.5,N
1560318555.5,286047000.9,N
1560318575.4,286047000.6,N
1560318595.2,286046999.9,N
1560318645.1,286047000.9,E
1560318655.9,286046998.9,N
1560318675.7,286046999.4,P
1560318695.6,286046999.6,N
1560318715.4,286046999.2,N
1560318735.3,286046998.9,Y
1560318755.1,286047000.5,P
1560318756.0,286047000.5,N
1560318775.8,286046998.8,N
1560318795.7,286046998.2,N
1560318815.5,286046998.2,N
1560318835.3,286047000.1,N
1560318855.2,286046999.8,N
1560318875.0,286047002.8,Y
1560318875.9,286047002.8,P
1560318895.8,286047001.8,N
1560318915.6,286046999.8,N
1560318935.4,286047000.5,N
1560318955.3,286047000.6,N
1560318975.1,286046999.8,N
1560318995.8,286047000.3,N
1560319015.7,286047000.1,N
1560319035.5,286047002.0,N
1560319055.4,286047001.4,N
1560319075.2,286047003.8,Y
1560319095.0,286047005.9,P
1560319115.8,286047005.7,N
1560319135.6,286047003.0,N
1560319155.4,286047006.0,N
1560319175.3,286047005.5,N
1560319195.1,286047006.0,Y
